Starlink 35709

operational
NORAD ID: 66216 Int'l Des: 2025-244 Owner: SPXS Country: US Constellation: starlink
NOTLE

关于 Starlink 35709

正在加载描述...

实时位置

正在加载3D地球...

即将过境

高度历史

Altitude vs Time

uPlot chart will show altitude changes over time

两行轨道根数

1 66216U 25244L 25348.80431552 .00049563 00000-0 12408-2 0 9992
2 66216 53.1603 266.2943 0001216 80.9370 279.1773 15.39624180 8632
Epoch: Dec 14, 2025 • Age: 22 hours

当前状态

高度 449.1 km
速度 7.64 km/s
星下点 -7.15°S, 84.08°W
发射日期 Oct 28, 2025
运行时间 0.1 years
类型 internet

技术详情

分类 Payload
质量 575.00 kg
干质量 530.00 kg
总质量 575.00 kg
长度 0.30 m
直径 4.10 m
跨度 29.00 m
形状 Box + pan
制造商 SPXS
平台类型 Starlink V2MO
阶段状态 In Orbit
所有者/国家 SPXS/US

大型星座

Loading constellations...